This is the latest recevied weather packets stored in our database for station/object KD7AWQ. If no packets are shown the sender has not sent any weather packets the latest 10 day(s).
| Time | Temp. | Humidity | Pressure | Rain* | Wind** | Luminosity | Snow |
|---|---|---|---|---|---|---|---|
| 1788163675 | 26.67° C | 44% | 1186.2 hPa | 0 mm | - | 0 W/m² | - |
| 1788163369 | 26.67° C | 45% | 1186.3 hPa | 0 mm | - | 0 W/m² | - |
| 1788163066 | 26.67° C | 45% | 1186.4 hPa | 0 mm | - | 0 W/m² | - |
| 1788162761 | 26.67° C | 46% | 1186.5 hPa | 0 mm | - | 0 W/m² | - |
| 1788162460 | 26.11° C | 46% | 1186.6 hPa | 0 mm | - | 0 W/m² | - |
| 1788162154 | 26.11° C | 47% | 1186.5 hPa | 0 mm | - | 0 W/m² | - |
| 1788161850 | 26.67° C | 47% | 1186.7 hPa | 0 mm | - | 0 W/m² | - |
| 1788161549 | 27.22° C | 46% | 1186.3 hPa | 0 mm | - | 0 W/m² | - |
| 1788161244 | 27.22° C | 43% | 1186.6 hPa | 0 mm | - | 0 W/m² | - |
| 1788160941 | 27.22° C | 43% | 1186.5 hPa | 0 mm | - | 0 W/m² | - |
| 1788160635 | 27.78° C | 41% | 1186.6 hPa | 0 mm | - | 0 W/m² | - |
| 1788160335 | 27.78° C | 40% | 1186.2 hPa | 0 mm | - | 0 W/m² | - |
| 1788160029 | 27.78° C | 42% | 1186.3 hPa | 0 mm | - | 0 W/m² | - |
| 1788159723 | 27.78° C | 42% | 1186.5 hPa | 0 mm | - | 0 W/m² | - |
| 1788159423 | 27.78° C | 41% | 1186.2 hPa | 0 mm | - | 0 W/m² | - |
| 1788159121 | 28.33° C | 40% | 1186.4 hPa | 0 mm | - | 0 W/m² | - |
| 1788158829 | 28.33° C | 39% | 1186.4 hPa | 0 mm | - | 0 W/m² | - |
| 1788158511 | 28.89° C | 38% | 1186.4 hPa | 0 mm | - | 0 W/m² | - |
| 1788158207 | 28.89° C | 37% | 1186.5 hPa | 0 mm | - | 0 W/m² | - |
| 1788157903 | 28.89° C | 37% | 1186.4 hPa | 0 mm | - | 0 W/m² | - |
| 1788157603 | 28.89° C | 37% | 1186.6 hPa | 0 mm | - | 0 W/m² | - |
| 1788157302 | 28.89° C | 36% | 1186.4 hPa | 0 mm | - | 0 W/m² | - |
| 1788157000 | 28.89° C | 36% | 1186.4 hPa | 0 mm | - | 0 W/m² | - |
| 1788156697 | 28.89° C | 36% | 1186.6 hPa | 0 mm | - | 0 W/m² | - |
| 1788156393 | 28.89° C | 36% | 1186.3 hPa | 0 mm | - | 0 W/m² | - |
* Rain latest hour (hover to see other rain measurements)
** Current wind speed in m/s (hover to see current wind gust speed)